Voltar ao catálogo

DELTA 1 DEB

AtivoLEO
NORAD 7042·DEBRIS·🇺🇸 United States

Lançado Nov 6, 1973 de Vandenberg Space Force Base

Loading…

Próximas Passagens (próximas 24 horas)

TLE

AtualizadoSource: Space-Track

Época: Sep 14, 2026, 13:03 UTC

1 07042U 73086AJ  26257.54401020  .00000295  00000-0  42162-3 0  9999
2 07042 101.7144 162.4602 0314364 230.8535 126.4266 13.48446013574288

Acompanhe DELTA 1 DEB em tempo real com AllMySat

Download on the App Store